Weather History for KEVM - October, 2012

Change the Weather History Date:

Wednesday, October 3, 2012

  Actual Average Record
Temperature  
Mean Temperature 52 °F -  
Max Temperature 73 °F 56 °F 78 °F (2011)
Min Temperature 32 °F 34 °F 17 °F (1999)
Degree Days  
Heating Degree Days 12    
Growing Degree Days 2 (Base 50)    
Moisture  
Dew Point 38 °F    
Average Humidity 65    
Maximum Humidity 100    
Minimum Humidity 27    
Precipitation  
Precipitation 0.00 in - - ()
Sea Level Pressure  
Sea Level Pressure 29.89 in    
Wind  
Wind Speed 1 mph (NE)    
Max Wind Speed 8 mph    
Max Gust Speed -    
Visibility 8 miles    
Events      
Averages and records for this station are not official NWS values.
T = Trace of Precipitation, MM = Missing Value Source: NWS Daily Summary

Daily Weather History Graph

Daily Weather History Graph

Search for Another Location

Airport or City:

Trip Planner

Search our weather history database for the weather conditions in past years. The results will help you decide how hot, cold, wet, or windy it might be!

Date:

Astronomy

Oct. 03, 2012 Rise Set
Actual Time 7:12 AM CDT 6:44 PM CDT
Civil Twilight 6:41 AM CDT 7:14 PM CDT
Nautical Twilight 6:06 AM CDT 7:50 PM CDT
Astronomical Twilight 5:30 AM CDT 8:26 PM CDT
Moon 8:19 PM CDT (10/3) 10:52 AM CDT (10/3)
Length of Visible Light 12h 33m
Length of Day
11h 31m
Waning Gibbous, 88% of the Moon is Illuminated
Oct 3
Waning Gibbous
Oct 8
Last Quarter
Oct 15
New
Oct 21
First Quarter
Oct 29
Full

Hourly Weather History & Observations

Time (CDT) Temp. Dew Point Humidity Pressure Visibility Wind Dir Wind Speed Gust Speed Precip Events Conditions
12:09 AM 37.4 °F 35.6 °F 93% 29.86 in 10.0 mi Calm Calm - N/A   Clear
12:29 AM 37.4 °F 35.6 °F 93% 29.86 in 10.0 mi Calm Calm - N/A   Clear
12:50 AM 37.4 °F 35.6 °F 93% 29.86 in 10.0 mi Calm Calm - N/A   Clear
1:09 AM 37.4 °F 35.6 °F 93% 29.86 in 10.0 mi Calm Calm - N/A   Clear
1:29 AM 37.4 °F 35.6 °F 93% 29.87 in 10.0 mi Calm Calm - N/A   Clear
1:49 AM 35.6 °F 33.8 °F 93% 29.87 in 10.0 mi Calm Calm - N/A   Clear
2:09 AM 35.6 °F 33.8 °F 93% 29.87 in 10.0 mi Calm Calm - N/A   Clear
2:30 AM 35.6 °F 32.0 °F 87% 29.87 in 10.0 mi Calm Calm - N/A   Clear
2:49 AM 35.6 °F 32.0 °F 87% 29.86 in 10.0 mi Calm Calm - N/A   Clear
3:09 AM 33.8 °F 32.0 °F 93% 29.86 in 1.2 mi Calm Calm - N/A   Mist
3:30 AM 33.8 °F 32.0 °F 93% 29.86 in 10.0 mi Calm Calm - N/A   Clear
3:49 AM 33.8 °F 32.0 °F 93% 29.86 in 0.8 mi Calm Calm - N/A   Mist
4:09 AM 32.0 °F 32.0 °F 100% 29.86 in 1.2 mi Calm Calm - N/A   Mist
4:30 AM 32.0 °F 32.0 °F 100% 29.86 in 10.0 mi Calm Calm - N/A   Clear
4:49 AM 33.8 °F 32.0 °F 93% 29.86 in 1.8 mi Calm Calm - N/A   Mist
5:09 AM 32.0 °F 32.0 °F 100% 29.86 in 1.0 mi Calm Calm - N/A   Mist
5:30 AM 32.0 °F 32.0 °F 100% 29.87 in 1.0 mi Calm Calm - N/A   Mist
5:49 AM 32.0 °F 32.0 °F 100% 29.87 in 5.0 mi Calm Calm - N/A   Clear
6:09 AM 32.0 °F 32.0 °F 100% 29.88 in 10.0 mi Calm Calm - N/A   Clear
6:30 AM 32.0 °F 32.0 °F 100% 29.89 in 10.0 mi Calm Calm - N/A   Clear
6:49 AM 32.0 °F 32.0 °F 100% 29.89 in 7.0 mi Calm Calm - N/A   Clear
7:09 AM 32.0 °F 32.0 °F 100% 29.89 in 10.0 mi Calm Calm - N/A   Clear
7:30 AM 32.0 °F 32.0 °F 100% 29.90 in 1.0 mi Calm Calm - N/A   Mist
7:49 AM 32.0 °F 32.0 °F 100% 29.91 in 3.0 mi Calm Calm - N/A   Clear
8:09 AM 33.8 °F 32.0 °F 93% 29.91 in 10.0 mi Calm Calm - N/A   Clear
8:30 AM 37.4 °F 35.6 °F 93% 29.91 in 7.0 mi Calm Calm - N/A   Clear
8:49 AM 42.8 °F 41.0 °F 93% 29.91 in 10.0 mi Calm Calm - N/A   Clear
9:09 AM 44.6 °F 41.0 °F 87% 29.90 in 10.0 mi Calm Calm - N/A   Clear
9:29 AM 48.2 °F 39.2 °F 71% 29.91 in 10.0 mi Calm Calm - N/A   Clear
9:49 AM 53.6 °F 42.8 °F 67% 29.91 in 10.0 mi Calm Calm - N/A   Clear
10:10 AM 53.6 °F 41.0 °F 62% 29.92 in 10.0 mi Calm Calm - N/A   Clear
10:29 AM 55.4 °F 41.0 °F 58% 29.92 in 10.0 mi Calm Calm - N/A   Clear
10:50 AM 59.0 °F 41.0 °F 51% 29.92 in 10.0 mi Calm Calm - N/A   Clear
11:09 AM 60.8 °F 41.0 °F 48% 29.91 in 10.0 mi Calm Calm - N/A   Clear
11:29 AM 62.6 °F 41.0 °F 45% 29.91 in 10.0 mi Calm Calm - N/A   Clear
11:50 AM 62.6 °F 39.2 °F 42% 29.91 in 10.0 mi SSE 3.5 mph - N/A   Clear
12:09 PM 64.4 °F 39.2 °F 40% 29.91 in 10.0 mi Calm Calm - N/A   Clear
12:50 PM 68.0 °F 37.4 °F 33% 29.90 in 10.0 mi Calm Calm - N/A   Clear
1:09 PM 69.8 °F 37.4 °F 31% 29.89 in 10.0 mi SSE 3.5 mph - N/A   Clear
1:29 PM 69.8 °F 37.4 °F 31% 29.88 in 7.0 mi Calm Calm - N/A   Clear
1:50 PM 73.4 °F 41.0 °F 31% 29.88 in 7.0 mi Calm Calm - N/A   Clear
2:09 PM 73.4 °F 41.0 °F 31% 29.88 in 10.0 mi Calm Calm - N/A   Clear
2:29 PM 73.4 °F 39.2 °F 29% 29.88 in 10.0 mi Calm Calm - N/A   Clear
2:50 PM - - N/A% - 10.0 mi ENE 4.6 mph - N/A   Unknown
3:09 PM 73.4 °F 39.2 °F 29% 29.88 in 10.0 mi WNW 4.6 mph - N/A   Clear
3:29 PM 73.4 °F 41.0 °F 31% 29.88 in 10.0 mi NW 4.6 mph - N/A   Clear
3:50 PM 73.4 °F 37.4 °F 27% 29.88 in 10.0 mi North 3.5 mph - N/A   Clear
4:09 PM 73.4 °F 37.4 °F 27% 29.88 in 10.0 mi NW 3.5 mph - N/A   Clear
4:29 PM 73.4 °F 37.4 °F 27% 29.88 in 10.0 mi NNE 4.6 mph - N/A   Clear
4:50 PM 73.4 °F 39.2 °F 29% 29.88 in 10.0 mi NNE 3.5 mph - N/A   Clear
5:09 PM 73.4 °F 37.4 °F 27% 29.88 in 10.0 mi Calm Calm - N/A   Clear
5:29 PM 73.4 °F 39.2 °F 29% 29.88 in 10.0 mi NNE 3.5 mph - N/A   Clear
5:50 PM 68.0 °F 41.0 °F 37% 29.88 in 10.0 mi ENE 3.5 mph - N/A   Clear
6:09 PM 64.4 °F 41.0 °F 42% 29.89 in 10.0 mi East 3.5 mph - N/A   Clear
6:29 PM 62.6 °F 41.0 °F 45% 29.90 in 10.0 mi NNE 3.5 mph - N/A   Clear
6:50 PM 62.6 °F 41.0 °F 45% 29.90 in 10.0 mi ENE 3.5 mph - N/A   Clear
7:09 PM 60.8 °F 41.0 °F 48% 29.91 in 10.0 mi NE 4.6 mph - N/A   Clear
7:30 PM 62.6 °F 41.0 °F 45% 29.91 in 10.0 mi NNE 4.6 mph - N/A   Scattered Clouds
7:50 PM 60.8 °F 41.0 °F 48% 29.91 in 10.0 mi NE 5.8 mph - N/A   Mostly Cloudy
8:09 PM 62.6 °F 42.8 °F 48% 29.91 in 7.0 mi NNE 8.1 mph - N/A   Scattered Clouds
8:30 PM - - N/A% - 7.0 mi NNE 5.8 mph - N/A   Unknown
8:50 PM 60.8 °F 42.8 °F 52% 29.91 in 5.0 mi NNE 5.8 mph - N/A   Haze
9:30 PM 60.8 °F 42.8 °F 52% 29.91 in 7.0 mi NE 3.5 mph - N/A   Clear
9:49 PM 59.0 °F 42.8 °F 55% 29.92 in 7.0 mi Calm Calm - N/A   Scattered Clouds
10:10 PM 59.0 °F 44.6 °F 59% 29.92 in 7.0 mi Calm Calm - N/A   Scattered Clouds
10:30 PM 59.0 °F 44.6 °F 59% 29.92 in 7.0 mi NNE 3.5 mph - N/A   Clear
10:49 PM 59.0 °F 42.8 °F 55% 29.92 in 7.0 mi NE 3.5 mph - N/A   Scattered Clouds
11:10 PM 59.0 °F 44.6 °F 59% 29.91 in 7.0 mi NE 3.5 mph - N/A   Mostly Cloudy
11:30 PM 59.0 °F 44.6 °F 59% 29.91 in 7.0 mi ENE 3.5 mph - N/A   Scattered Clouds
11:49 PM 55.4 °F 42.8 °F 63% 29.91 in 10.0 mi NNE 3.5 mph - N/A   Clear